| time (UTC) | temp F | wind direction | speed MPH | gust MPH | rain 1hr in | rain 24hr in | rain mn in | humidity % | barometer mb |
| 20260508154559 | 65 | 219 | 0.0 | 0.0 | 0.00 | 0.01 | 0.01 | 48 | 1017.3 |
| 20260508153054 | 65 | 136 | 0.0 | 0.0 | 0.00 | 0.01 | 0.01 | 48 | 1017.5 |
| 20260508151553 | 64 | 267 | 0.0 | 0.0 | 0.00 | 0.01 | 0.01 | 49 | 1017.7 |
| 20260508150045 | 63 | 192 | 0.0 | 0.0 | 0.00 | 0.01 | 0.01 | 48 | 1017.6 |
| 20260508144540 | 63 | 181 | 0.0 | 0.0 | 0.00 | 0.01 | 0.01 | 51 | 1017.8 |
| 20260508143043 | 62 | 119 | 0.0 | 0.0 | 0.00 | 0.01 | 0.01 | 53 | 1017.9 |
| 20260508141542 | 60 | 155 | 0.0 | 0.0 | 0.00 | 0.01 | 0.01 | 57 | 1018.2 |
| 20260508140027 | 59 | 247 | 0.0 | 0.0 | 0.00 | 0.01 | 0.01 | 63 | 1018.1 |
| 20260508134530 | 57 | 113 | 0.0 | 0.0 | 0.00 | 0.01 | 0.01 | 63 | 1018.1 |
| 20260508133019 | 54 | 114 | 0.0 | 0.0 | 0.00 | 0.01 | 0.01 | 45 | 1018.2 |
| 20260508131514 | 50 | 114 | 0.0 | 0.0 | 0.00 | 0.01 | 0.01 | 20 | 1018.1 |
| 20260508130010 | 47 | 140 | 0.0 | 0.0 | 0.00 | 0.01 | 0.01 | 1 | 1018.1 |
| 20260508124509 | 45 | 140 | 0.0 | 0.0 | 0.00 | 0.01 | 0.01 | 1 | 1018.1 |
| 20260508123101 | 43 | 140 | 0.0 | 0.0 | 0.00 | 0.01 | 0.01 | 1 | 1018.1 |
| 20260508121607 | 41 | 140 | 0.0 | 0.0 | 0.00 | 0.01 | 0.01 | 1 | 1017.9 |
| 20260508120052 | 39 | 140 | 0.0 | 0.0 | 0.00 | 0.01 | 0.01 | 1 | 1017.8 |
| 20260508114547 | 36 | 140 | 0.0 | 0.0 | 0.00 | 0.01 | 0.01 | 1 | 1017.7 |
| 20260508113043 | 34 | 140 | 0.0 | 0.0 | 0.00 | 0.01 | 0.01 | 1 | 1017.7 |
| 20260508111539 | 34 | 140 | 0.0 | 0.0 | 0.00 | 0.01 | 0.01 | 1 | 1017.3 |
| 20260508110047 | 34 | 140 | 0.0 | 0.0 | 0.00 | 0.01 | 0.01 | 1 | 1017.2 |
| 20260508104532 | 34 | 140 | 0.0 | 0.0 | 0.00 | 0.01 | 0.01 | 1 | 1017.1 |
| 20260508103031 | 34 | 140 | 0.0 | 0.0 | 0.00 | 0.01 | 0.01 | 1 | 1016.9 |
| 20260508101524 | 34 | 140 | 0.0 | 0.0 | 0.00 | 0.01 | 0.01 | 1 | 1016.7 |
| 20260508100021 | 34 | 140 | 0.0 | 0.0 | 0.00 | 0.01 | 0.01 | 1 | 1016.8 |
| 20260508094515 | 35 | 140 | 0.0 | 0.0 | 0.00 | 0.01 | 0.01 | 1 | 1016.9 |
| 20260508093017 | 35 | 116 | 0.0 | 0.0 | 0.00 | 0.01 | 0.01 | 1 | 1016.9 |
| 20260508091512 | 34 | 116 | 0.0 | 0.0 | 0.00 | 0.01 | 0.01 | 1 | 1016.9 |
| 20260508090004 | 35 | 117 | 0.0 | 0.0 | 0.00 | 0.01 | 0.01 | 1 | 1016.9 |
| 20260508084558 | 35 | 116 | 0.0 | 0.0 | 0.00 | 0.01 | 0.01 | 1 | 1016.9 |
| 20260508083131 | 35 | 116 | 0.0 | 0.0 | 0.00 | 0.01 | 0.01 | 1 | 1016.9 |
| 20260508081554 | 35 | 116 | 0.0 | 0.0 | 0.00 | 0.01 | 0.01 | 1 | 1016.9 |
| 20260508080055 | 35 | 116 | 0.0 | 0.0 | 0.00 | 0.01 | 0.01 | 1 | 1016.8 |
| 20260508074540 | 36 | 116 | 0.0 | 0.0 | 0.01 | 0.01 | 0.01 | 1 | 1016.7 |
| 20260508073038 | 36 | 117 | 0.0 | 0.0 | 0.01 | 0.01 | 0.01 | 1 | 1016.7 |
| 20260508071534 | 37 | 116 | 0.0 | 0.0 | 0.01 | 0.01 | 0.01 | 1 | 1016.8 |
| 20260508070027 | 37 | 116 | 0.0 | 0.0 | 0.00 | 0.00 | 0.00 | 1 | 1016.8 |
| 20260508064540 | 37 | 116 | 0.0 | 0.0 | 0.00 | 0.00 | 0.00 | 1 | 1016.9 |
| 20260508063018 | 38 | 116 | 0.0 | 0.0 | 0.00 | 0.00 | 0.00 | 1 | 1016.9 |
| 20260508061517 | 38 | 117 | 0.0 | 0.0 | 0.00 | 0.00 | 0.00 | 1 | 1017.0 |
| 20260508060010 | 39 | 117 | 0.0 | 0.0 | 0.00 | 0.00 | 0.00 | 1 | 1017.0 |
| 20260508054505 | 39 | 321 | 0.0 | 0.0 | 0.00 | 0.00 | 0.00 | 1 | 1017.1 |
| 20260508053106 | 39 | 321 | 0.0 | 0.0 | 0.00 | 0.00 | 0.00 | 1 | 1017.0 |
| 20260508051557 | 39 | 321 | 0.0 | 0.0 | 0.00 | 0.00 | 0.00 | 1 | 1017.1 |
| 20260508050056 | 39 | 321 | 0.0 | 0.0 | 0.00 | 0.00 | 0.00 | 1 | 1017.2 |
| 20260508044548 | 40 | 321 | 0.0 | 0.0 | 0.00 | 0.00 | 0.00 | 1 | 1017.1 |
| 20260508043044 | 40 | 321 | 0.0 | 0.0 | 0.00 | 0.00 | 0.00 | 1 | 1017.0 |
| 20260508041540 | 41 | 321 | 0.0 | 0.0 | 0.00 | 0.00 | 0.00 | 1 | 1016.7 |
| 20260508040037 | 41 | 321 | 0.0 | 0.0 | 0.00 | 0.00 | 0.00 | 1 | 1016.6 |
| 20260508034531 | 42 | 321 | 0.0 | 0.0 | 0.00 | 0.00 | 0.00 | 1 | 1016.4 |
| 20260508033025 | 42 | 321 | 0.0 | 0.0 | 0.00 | 0.00 | 0.00 | 12 | 1016.5 |
| 20260508031521 | 43 | 321 | 0.0 | 0.0 | 0.00 | 0.00 | 0.00 | 12 | 1016.5 |
| 20260508030017 | 43 | 321 | 0.0 | 0.0 | 0.00 | 0.00 | 0.00 | 14 | 1016.5 |
| 20260508024522 | 44 | 321 | 0.0 | 0.0 | 0.00 | 0.00 | 0.00 | 28 | 1016.5 |
| 20260508023008 | 45 | 321 | 0.0 | 0.0 | 0.00 | 0.00 | 0.00 | 38 | 1016.2 |
| 20260508021502 | 46 | 321 | 0.0 | 0.0 | 0.00 | 0.00 | 0.00 | 46 | 1016.1 |
| 20260508020059 | 47 | 321 | 0.0 | 0.0 | 0.00 | 0.00 | 0.00 | 58 | 1015.9 |
| 20260508014555 | 48 | 321 | 0.0 | 0.0 | 0.00 | 0.00 | 0.00 | 61 | 1015.5 |
| 20260508013050 | 50 | 321 | 0.0 | 0.0 | 0.00 | 0.00 | 0.00 | 64 | 1015.3 |
| 20260508011558 | 51 | 321 | 0.0 | 0.0 | 0.00 | 0.00 | 0.00 | 67 | 1015.1 |
| 20260508010052 | 53 | 321 | 0.0 | 0.0 | 0.00 | 0.00 | 0.00 | 68 | 1014.9 |
| 20260508004551 | 54 | 321 | 0.0 | 0.0 | 0.00 | 0.01 | 0.00 | 69 | 1014.7 |
| 20260508003037 | 56 | 321 | 0.0 | 0.0 | 0.00 | 0.01 | 0.00 | 64 | 1014.6 |
| 20260508001528 | 59 | 321 | 0.0 | 0.0 | 0.00 | 0.01 | 0.00 | 58 | 1014.4 |
| 20260508000023 | 62 | 311 | 0.0 | 0.0 | 0.00 | 0.01 | 0.00 | 51 | 1014.2 |
| 20260507234520 | 63 | 327 | 0.0 | 0.0 | 0.00 | 0.03 | 0.00 | 41 | 1014.1 |
| 20260507233014 | 63 | 313 | 0.0 | 0.0 | 0.00 | 0.03 | 0.00 | 42 | 1014.2 |
| 20260507231509 | 64 | 338 | 0.0 | 0.0 | 0.00 | 0.03 | 0.00 | 42 | 1014.1 |
| 20260507230006 | 64 | 279 | 0.0 | 0.0 | 0.00 | 0.03 | 0.00 | 43 | 1014.1 |
| 20260507224504 | 64 | 323 | 0.0 | 0.0 | 0.00 | 0.04 | 0.00 | 42 | 1014.2 |
| 20260507223057 | 64 | 312 | 0.0 | 0.0 | 0.00 | 0.04 | 0.00 | 41 | 1014.2 |
| 20260507221552 | 65 | 324 | 0.0 | 0.0 | 0.00 | 0.04 | 0.00 | 41 | 1014.3 |
| 20260507220048 | 65 | 302 | 0.0 | 0.0 | 0.00 | 0.04 | 0.00 | 39 | 1014.1 |
| 20260507214543 | 64 | 242 | 0.0 | 0.0 | 0.00 | 0.06 | 0.00 | 41 | 1014.2 |
| 20260507213039 | 65 | 15 | 0.0 | 0.0 | 0.00 | 0.06 | 0.00 | 41 | 1013.9 |
| 20260507211535 | 65 | 300 | 0.0 | 0.0 | 0.00 | 0.06 | 0.00 | 42 | 1013.8 |
| 20260507210030 | 64 | 312 | 0.0 | 0.0 | 0.00 | 0.06 | 0.00 | 42 | 1013.9 |
| 20260507204526 | 64 | 332 | 0.0 | 0.0 | 0.00 | 0.07 | 0.00 | 40 | 1014.0 |
| 20260507203020 | 64 | 308 | 0.0 | 0.0 | 0.00 | 0.07 | 0.00 | 40 | 1013.7 |
| 20260507201516 | 64 | 273 | 0.0 | 0.0 | 0.00 | 0.07 | 0.00 | 42 | 1013.9 |
| 20260507200022 | 65 | 344 | 0.0 | 0.0 | 0.00 | 0.07 | 0.00 | 41 | 1014.0 |
| 20260507194507 | 64 | 336 | 0.0 | 0.0 | 0.00 | 0.07 | 0.00 | 41 | 1014.2 |
| 20260507193006 | 64 | 9 | 0.0 | 0.0 | 0.00 | 0.07 | 0.00 | 43 | 1014.3 |
| 20260507191601 | 64 | 331 | 0.0 | 0.0 | 0.00 | 0.07 | 0.00 | 42 | 1014.3 |
| 20260507191501 | 64 | 348 | 0.0 | 0.0 | 0.00 | 0.07 | 0.00 | 42 | 1014.3 |
| 20260507184551 | 64 | 355 | 0.0 | 0.0 | 0.00 | 0.07 | 0.00 | 41 | 1014.4 |
| 20260507183050 | 63 | 333 | 0.0 | 0.0 | 0.00 | 0.07 | 0.00 | 49 | 1014.3 |
| 20260507181542 | 63 | 303 | 0.0 | 0.0 | 0.00 | 0.07 | 0.00 | 46 | 1014.5 |
| 20260507180042 | 63 | 52 | 0.0 | 0.0 | 0.00 | 0.07 | 0.00 | 46 | 1014.5 |
| 20260507174538 | 62 | 337 | 0.0 | 0.0 | 0.00 | 0.07 | 0.00 | 47 | 1014.7 |
| 20260507173033 | 62 | 252 | 0.0 | 0.0 | 0.00 | 0.07 | 0.00 | 49 | 1015.0 |
| 20260507171525 | 63 | 288 | 0.0 | 0.0 | 0.00 | 0.07 | 0.00 | 47 | 1015.1 |
| 20260507170021 | 62 | 284 | 0.0 | 0.0 | 0.00 | 0.07 | 0.00 | 48 | 1015.2 |
| 20260507164520 | 62 | 302 | 0.0 | 0.0 | 0.00 | 0.09 | 0.00 | 47 | 1015.2 |
| 20260507163011 | 62 | 279 | 0.0 | 0.0 | 0.00 | 0.09 | 0.00 | 49 | 1015.5 |
| 20260507161510 | 60 | 92 | 0.0 | 0.0 | 0.00 | 0.09 | 0.00 | 54 | 1015.6 |
| 20260507160005 | 60 | 288 | 0.0 | 0.0 | 0.00 | 0.09 | 0.00 | 53 | 1015.5 |